QPF
0.00 0.00 0.00 0.00 0.00 0.00 0.00 0.00 0.00 0.00 0.00 0.00 0.00 0.00 0.00 0.00 0.00 0.00 0.00 0.00 0.00 0.00 0.00 0.00 0.00 0.00 0.00 0.00 0.00 0.00 0.00 0.00 0.00 0.00 0.00 0.00 0.00 0.00 0.00 0.00 0.00 0.00 0.00
0.00 0.00 0.00 0.00 0.00 0.00 0.00 0.00 0.00 0.00 0.00 0.00 0.00 0.00 0.00 0.00 0.00 0.00 0.00 0.00 0.00 0.00 0.00 0.00 0.00 0.00 0.00 0.00 0.00 0.00 0.00 0.00 0.00 0.00 0.00 0.00 0.00 0.00 0.00 0.00 0.00 0.00 0.00
0.00 0.00 0.00 0.00 0.00 0.00 0.00 0.00 0.00 0.00 0.00 0.00 0.00 0.00 0.00 0.00 0.00 0.00 0.00 0.00 0.00 0.00 0.00 0.00 0.00 0.00 0.00 0.00 0.00 0.00 0.00 0.00 0.00 0.00 0.00 0.00 0.00 0.00 0.00 0.00 0.00 0.00 0.00
0.00 0.00 0.00 0.00 0.00 0.00 0.00 0.00 0.00 0.00 0.00 0.00 0.00 0.00 0.00 0.00 0.00 0.00 0.00 0.00 0.00 0.00 0.00 0.00 0.00 0.00 0.00 0.00 0.00 0.00 0.00 0.00 0.00 0.00 0.00 0.00 0.00 0.01 0.01 0.00 0.00 0.00 0.00
0.00 0.00 0.00 0.00 0.00 0.00 0.00 0.00 0.00 0.00 0.00 0.00 0.00 0.00 0.00 0.00 0.00 0.00 0.00 0.00 0.00 0.00 0.00 0.00 0.00 0.00 0.00 0.00 0.00 0.00 0.00 0.00 0.00 0.00 0.00 0.00 0.00 0.00 0.01 0.01 0.00 0.00 0.00
0.00 0.00 0.00 0.00 0.00 0.00 0.00 0.00 0.00 0.00 0.00 0.00 0.00 0.00 0.00 0.00 0.00 0.00 0.00 0.00 0.00 0.00 0.00 0.00 0.00 0.00 0.00 0.00 0.00 0.00 0.00 0.00 0.00 0.00 0.00 0.00 0.00 0.00 0.01 0.01 0.00 0.00 0.00
0.00 0.00 0.00 0.00 0.00 0.00 0.00 0.00 0.00 0.00 0.00 0.00 0.00 0.00 0.00 0.00 0.00 0.00 0.00 0.00 0.00 0.00 0.00 0.00 0.00 0.00 0.00 0.00 0.00 0.00 0.00 0.00 0.00 0.00 0.00 0.00 0.00 0.00 0.01 0.01 0.01 0.00 0.00
0.00 0.00 0.00 0.00 0.00 0.00 0.00 0.00 0.00 0.00 0.00 0.00 0.00 0.00 0.00 0.00 0.00 0.00 0.00 0.00 0.00 0.00 0.00 0.00 0.00 0.00 0.00 0.00 0.00 0.00 0.00 0.00 0.00 0.00 0.00 0.00 0.00 0.00 0.00 0.01 0.02 0.03 0.01
0.00 0.00 0.00 0.00 0.00 0.00 0.00 0.00 0.00 0.00 0.00 0.00 0.00 0.00 0.00 0.00 0.00 0.00 0.00 0.00 0.00 0.00 0.00 0.00 0.00 0.00 0.00 0.00 0.00 0.00 0.00 0.00 0.00 0.00 0.00 0.00 0.00 0.00 0.00 0.01 0.03 0.06 0.05
0.00 0.00 0.00 0.00 0.00 0.00 0.00 0.00 0.00 0.00 0.00 0.00 0.00 0.00 0.00 0.00 0.00 0.00 0.00 0.00 0.00 0.00 0.00 0.00 0.00 0.00 0.00 0.00 0.00 0.00 0.00 0.00 0.00 0.00 0.00 0.00 0.00 0.00 0.01 0.01 0.02 0.04 0.06
0.00 0.00 0.00 0.00 0.00 0.00 0.00 0.00 0.00 0.00 0.00 0.00 0.00 0.00 0.00 0.00 0.00 0.00 0.00 0.00 0.00 0.00 0.00 0.00 0.00 0.00 0.00 0.00 0.00 0.00 0.00 0.00 0.00 0.00 0.00 0.00 0.00 0.01 0.01 0.01 0.02 0.02 0.03
0.00 0.00 0.00 0.00 0.00 0.00 0.00 0.00 0.00 0.00 0.00 0.00 0.00 0.00 0.00 0.00 0.00 0.00 0.00 0.00 0.00 0.00 0.00 0.00 0.00 0.00 0.00 0.00 0.00 0.00 0.00 0.00 0.00 0.00 0.00 0.00 0.00 0.01 0.01 0.01 0.01 0.01 0.02
0.00 0.00 0.00 0.00 0.00 0.00 0.00 0.00 0.00 0.00 0.00 0.00 0.00 0.00 0.00 0.00 0.00 0.00 0.00 0.00 0.00 0.00 0.00 0.00 0.00 0.00 0.00 0.00 0.00 0.00 0.00 0.00 0.00 0.00 0.01 0.01 0.01 0.01 0.01 0.01 0.01 0.01 0.02
0.00 0.00 0.00 0.00 0.00 0.00 0.00 0.00 0.00 0.00 0.00 0.00 0.00 0.00 0.00 0.00 0.00 0.00 0.00 0.00 0.00 0.00 0.01 0.01 0.01 0.00 0.00 0.00 0.00 0.00 0.00 0.00 0.00 0.01 0.01 0.01 0.01 0.01 0.01 0.02 0.02 0.03 0.05
0.00 0.00 0.00 0.00 0.00 0.00 0.00 0.00 0.00 0.00 0.00 0.00 0.00 0.00 0.00 0.00 0.00 0.00 0.00 0.00 0.00 0.01 0.01 0.01 0.01 0.01 0.00 0.00 0.00 0.00 0.00 0.01 0.01 0.01 0.01 0.01 0.01 0.02 0.03 0.05 0.06 0.08 0.09
0.00 0.00 0.00 0.00 0.00 0.00 0.00 0.00 0.00 0.00 0.00 0.00 0.00 0.00 0.00 0.00 0.00 0.00 0.00 0.01 0.01 0.01 0.01 0.01 0.01 0.01 0.00 0.00 0.00 0.00 0.01 0.01 0.01 0.01 0.00 0.00 0.00 0.01 0.01 0.02 0.03 0.05 0.09
0.00 0.00 0.00 0.00 0.00 0.00 0.00 0.00 0.00 0.00 0.00 0.00 0.00 0.00 0.00 0.00 0.00 0.00 0.01 0.01 0.01 0.01 0.01 0.01 0.01 0.01 0.00 0.00 0.00 0.00 0.01 0.01 0.01 0.00 0.00 0.00 0.00 0.00 0.00 0.02 0.03 0.03 0.02
0.00 0.00 0.00 0.00 0.00 0.00 0.00 0.00 0.00 0.00 0.00 0.00 0.00 0.00 0.00 0.00 0.00 0.00 0.01 0.01 0.01 0.01 0.01 0.01 0.01 0.00 0.00 0.00 0.00 0.00 0.00 0.00 0.00 0.00 0.00 0.00 0.00 0.00 0.03 0.10 0.07 0.02 0.00
0.00 0.00 0.00 0.00 0.00 0.00 0.00 0.00 0.00 0.00 0.00 0.00 0.00 0.00 0.00 0.00 0.00 0.01 0.01 0.01 0.01 0.01 0.01 0.01 0.01 0.01 0.01 0.00 0.00 0.00 0.00 0.00 0.00 0.00 0.00 0.00 0.00 0.01 0.06 0.09 0.04 0.01 0.00
0.00 0.00 0.00 0.00 0.00 0.00 0.00 0.00 0.00 0.00 0.00 0.00 0.00 0.00 0.00 0.00 0.00 0.01 0.01 0.01 0.01 0.01 0.01 0.01 0.01 0.01 0.01 0.00 0.00 0.00 0.00 0.00 0.00 0.00 0.00 0.00 0.01 0.03 0.05 0.04 0.02 0.01 0.02
0.00 0.00 0.00 0.00 0.00 0.00 0.00 0.00 0.00 0.00 0.00 0.00 0.00 0.00 0.00 0.00 0.00 0.01 0.01 0.01 0.01 0.01 0.01 0.01 0.01 0.01 0.01 0.00 0.00 0.00 0.00 0.01 0.01 0.00 0.00 0.00 0.01 0.03 0.03 0.02 0.01 0.03 0.04
0.00 0.00 0.00 0.00 0.00 0.00 0.00 0.00 0.00 0.00 0.00 0.00 0.00 0.00 0.00 0.00 0.01 0.01 0.01 0.01 0.02 0.02 0.01 0.01 0.01 0.01 0.01 0.00 0.00 0.00 0.01 0.01 0.01 0.01 0.00 0.00 0.01 0.02 0.01 0.01 0.01 0.02 0.01
0.00 0.00 0.00 0.00 0.00 0.00 0.00 0.00 0.00 0.00 0.00 0.00 0.00 0.00 0.00 0.00 0.01 0.01 0.01 0.02 0.02 0.02 0.02 0.02 0.01 0.01 0.01 0.01 0.00 0.00 0.00 0.01 0.00 0.00 0.00 0.01 0.01 0.01 0.00 0.00 0.01 0.01 0.00
0.00 0.00 0.00 0.00 0.00 0.00 0.00 0.00 0.00 0.00 0.00 0.00 0.00 0.00 0.00 0.00 0.01 0.01 0.01 0.02 0.02 0.02 0.02 0.02 0.01 0.01 0.01 0.00 0.00 0.00 0.00 0.00 0.00 0.00 0.00 0.00 0.00 0.00 0.00 0.00 0.00 0.00 0.00
0.00 0.00 0.00 0.00 0.00 0.00 0.00 0.00 0.00 0.00 0.00 0.00 0.00 0.00 0.00 0.00 0.01 0.01 0.01 0.02 0.02 0.02 0.02 0.01 0.01 0.01 0.01 0.00 0.00 0.00 0.00 0.00 0.00 0.01 0.00 0.00 0.00 0.00 0.00 0.00 0.00 0.00 0.00
0.00 0.00 0.00 0.00 0.00 0.00 0.00 0.00 0.00 0.00 0.00 0.00 0.00 0.00 0.00 0.00 0.01 0.01 0.01 0.02 0.02 0.02 0.02 0.01 0.01 0.01 0.01 0.00 0.00 0.00 0.00 0.00 0.01 0.01 0.00 0.00 0.00 0.00 0.00 0.00 0.00 0.00 0.00
MSLP
1018.58 1019.05 1019.54 1020.02 1020.52 1021.04 1021.60 1022.21 1022.87 1023.56 1024.25 1024.92 1025.53 1026.05 1026.48 1026.83 1027.09 1027.32 1027.53 1027.76 1028.02 1028.32 1028.67 1029.04 1029.41 1029.76 1030.06 1030.28 1030.40 1030.40 1030.28 1030.05 1029.71 1029.29 1028.81 1028.29 1027.78 1027.27 1026.79 1026.35 1025.94 1025.56 1025.18
1017.37 1017.89 1018.41 1018.92 1019.42 1019.92 1020.47 1021.07 1021.74 1022.46 1023.20 1023.93 1024.61 1025.20 1025.69 1026.08 1026.37 1026.61 1026.83 1027.06 1027.32 1027.64 1028.02 1028.42 1028.83 1029.22 1029.54 1029.77 1029.90 1029.91 1029.80 1029.59 1029.28 1028.89 1028.44 1027.96 1027.46 1026.95 1026.45 1025.96 1025.48 1025.03 1024.58
1016.10 1016.65 1017.20 1017.72 1018.22 1018.72 1019.25 1019.84 1020.51 1021.25 1022.04 1022.83 1023.57 1024.23 1024.79 1025.22 1025.55 1025.81 1026.04 1026.28 1026.56 1026.90 1027.29 1027.72 1028.15 1028.55 1028.89 1029.14 1029.28 1029.31 1029.24 1029.07 1028.82 1028.50 1028.13 1027.70 1027.23 1026.73 1026.19 1025.64 1025.08 1024.52 1023.97
1014.82 1015.39 1015.95 1016.48 1016.97 1017.46 1017.96 1018.54 1019.20 1019.96 1020.77 1021.61 1022.41 1023.13 1023.74 1024.22 1024.59 1024.89 1025.15 1025.41 1025.71 1026.06 1026.47 1026.91 1027.36 1027.76 1028.11 1028.37 1028.53 1028.60 1028.57 1028.47 1028.31 1028.08 1027.80 1027.45 1027.04 1026.55 1025.98 1025.35 1024.69 1024.01 1023.34
1013.61 1014.18 1014.74 1015.26 1015.73 1016.19 1016.67 1017.22 1017.87 1018.61 1019.43 1020.29 1021.13 1021.89 1022.55 1023.08 1023.50 1023.84 1024.14 1024.44 1024.77 1025.15 1025.57 1026.03 1026.47 1026.88 1027.23 1027.49 1027.67 1027.77 1027.80 1027.78 1027.71 1027.59 1027.41 1027.14 1026.78 1026.31 1025.72 1025.02 1024.26 1023.46 1022.66
1012.52 1013.07 1013.61 1014.11 1014.56 1014.98 1015.42 1015.93 1016.54 1017.26 1018.07 1018.92 1019.77 1020.55 1021.25 1021.82 1022.29 1022.68 1023.03 1023.38 1023.75 1024.17 1024.62 1025.09 1025.54 1025.95 1026.29 1026.55 1026.74 1026.87 1026.95 1026.99 1027.00 1026.98 1026.88 1026.70 1026.39 1025.94 1025.33 1024.58 1023.73 1022.83 1021.92
1011.61 1012.11 1012.62 1013.08 1013.50 1013.88 1014.28 1014.74 1015.30 1015.97 1016.74 1017.56 1018.39 1019.18 1019.88 1020.49 1021.00 1021.45 1021.86 1022.27 1022.70 1023.17 1023.66 1024.14 1024.60 1025.01 1025.34 1025.59 1025.78 1025.92 1026.03 1026.11 1026.19 1026.23 1026.20 1026.07 1025.81 1025.37 1024.75 1023.97 1023.06 1022.08 1021.10
1010.88 1011.32 1011.79 1012.21 1012.58 1012.91 1013.27 1013.67 1014.18 1014.79 1015.50 1016.27 1017.06 1017.82 1018.52 1019.14 1019.69 1020.19 1020.67 1021.15 1021.65 1022.17 1022.71 1023.22 1023.70 1024.10 1024.42 1024.66 1024.83 1024.96 1025.07 1025.18 1025.27 1025.34 1025.35 1025.25 1025.01 1024.58 1023.96 1023.16 1022.22 1021.20 1020.18
1010.32 1010.70 1011.10 1011.47 1011.80 1012.09 1012.40 1012.76 1013.20 1013.75 1014.39 1015.10 1015.83 1016.55 1017.22 1017.84 1018.42 1018.96 1019.50 1020.04 1020.61 1021.20 1021.78 1022.34 1022.83 1023.23 1023.54 1023.76 1023.91 1024.02 1024.11 1024.19 1024.27 1024.33 1024.34 1024.24 1023.99 1023.57 1022.95 1022.15 1021.21 1020.19 1019.16
1009.89 1010.20 1010.54 1010.86 1011.14 1011.40 1011.66 1011.98 1012.38 1012.87 1013.44 1014.07 1014.73 1015.39 1016.03 1016.63 1017.21 1017.78 1018.36 1018.96 1019.60 1020.24 1020.88 1021.47 1021.98 1022.39 1022.69 1022.90 1023.02 1023.09 1023.13 1023.17 1023.21 1023.23 1023.20 1023.08 1022.81 1022.39 1021.77 1020.98 1020.07 1019.08 1018.08
1009.57 1009.80 1010.06 1010.32 1010.56 1010.78 1011.02 1011.31 1011.67 1012.11 1012.62 1013.19 1013.78 1014.37 1014.95 1015.52 1016.08 1016.66 1017.26 1017.91 1018.58 1019.28 1019.95 1020.58 1021.11 1021.53 1021.84 1022.02 1022.12 1022.15 1022.15 1022.14 1022.11 1022.07 1021.99 1021.81 1021.52 1021.08 1020.47 1019.71 1018.83 1017.89 1016.94
1009.29 1009.44 1009.63 1009.82 1010.01 1010.21 1010.43 1010.70 1011.04 1011.44 1011.90 1012.40 1012.92 1013.45 1013.97 1014.48 1015.01 1015.58 1016.19 1016.85 1017.55 1018.27 1018.98 1019.63 1020.19 1020.63 1020.93 1021.11 1021.19 1021.19 1021.15 1021.08 1020.99 1020.89 1020.74 1020.51 1020.18 1019.72 1019.12 1018.39 1017.56 1016.68 1015.79
1009.05 1009.11 1009.21 1009.33 1009.47 1009.64 1009.84 1010.10 1010.42 1010.80 1011.22 1011.67 1012.13 1012.59 1013.04 1013.50 1013.99 1014.52 1015.12 1015.77 1016.48 1017.22 1017.95 1018.62 1019.19 1019.64 1019.96 1020.14 1020.21 1020.19 1020.11 1020.00 1019.86 1019.70 1019.49 1019.21 1018.85 1018.37 1017.78 1017.09 1016.31 1015.49 1014.67
1008.83 1008.79 1008.79 1008.83 1008.91 1009.03 1009.22 1009.46 1009.77 1010.14 1010.53 1010.94 1011.34 1011.74 1012.13 1012.54 1012.98 1013.47 1014.04 1014.68 1015.39 1016.13 1016.86 1017.54 1018.12 1018.59 1018.91 1019.10 1019.17 1019.15 1019.05 1018.91 1018.73 1018.52 1018.27 1017.95 1017.56 1017.08 1016.50 1015.84 1015.11 1014.35 1013.59
1008.63 1008.48 1008.38 1008.32 1008.32 1008.40 1008.55 1008.77 1009.07 1009.41 1009.78 1010.16 1010.52 1010.86 1011.21 1011.56 1011.96 1012.43 1012.97 1013.59 1014.29 1015.02 1015.75 1016.43 1017.02 1017.49 1017.82 1018.02 1018.10 1018.07 1017.96 1017.80 1017.60 1017.37 1017.08 1016.75 1016.35 1015.87 1015.31 1014.67 1013.99 1013.29 1012.58
1008.46 1008.20 1007.98 1007.82 1007.73 1007.74 1007.84 1008.03 1008.30 1008.62 1008.96 1009.30 1009.63 1009.94 1010.24 1010.57 1010.94 1011.39 1011.91 1012.53 1013.21 1013.93 1014.66 1015.33 1015.92 1016.39 1016.73 1016.93 1017.01 1016.99 1016.88 1016.71 1016.50 1016.25 1015.95 1015.61 1015.20 1014.74 1014.20 1013.60 1012.96 1012.30 1011.64
1008.31 1007.94 1007.60 1007.33 1007.15 1007.07 1007.11 1007.26 1007.48 1007.76 1008.07 1008.38 1008.67 1008.96 1009.24 1009.56 1009.92 1010.36 1010.89 1011.51 1012.20 1012.91 1013.63 1014.30 1014.88 1015.34 1015.67 1015.87 1015.95 1015.92 1015.81 1015.64 1015.42 1015.17 1014.87 1014.53 1014.14 1013.69 1013.18 1012.62 1012.02 1011.40 1010.78
1008.18 1007.71 1007.26 1006.88 1006.60 1006.44 1006.41 1006.48 1006.65 1006.88 1007.14 1007.41 1007.67 1007.94 1008.22 1008.54 1008.92 1009.38 1009.93 1010.56 1011.25 1011.98 1012.69 1013.35 1013.91 1014.36 1014.67 1014.85 1014.92 1014.88 1014.77 1014.60 1014.38 1014.14 1013.85 1013.53 1013.16 1012.74 1012.27 1011.75 1011.18 1010.59 1010.00
1008.06 1007.50 1006.96 1006.49 1006.12 1005.88 1005.76 1005.75 1005.85 1006.01 1006.21 1006.43 1006.67 1006.92 1007.20 1007.53 1007.94 1008.43 1009.01 1009.67 1010.38 1011.11 1011.82 1012.46 1013.00 1013.43 1013.72 1013.88 1013.93 1013.88 1013.76 1013.60 1013.39 1013.16 1012.90 1012.61 1012.27 1011.89 1011.46 1010.97 1010.45 1009.89 1009.32
1007.93 1007.31 1006.71 1006.17 1005.72 1005.39 1005.19 1005.10 1005.11 1005.19 1005.32 1005.49 1005.69 1005.92 1006.20 1006.55 1006.99 1007.51 1008.12 1008.81 1009.53 1010.27 1010.97 1011.59 1012.11 1012.51 1012.77 1012.92 1012.95 1012.90 1012.79 1012.64 1012.46 1012.25 1012.03 1011.77 1011.48 1011.15 1010.76 1010.31 1009.82 1009.29 1008.74
1007.79 1007.14 1006.50 1005.91 1005.41 1005.01 1004.72 1004.55 1004.47 1004.46 1004.52 1004.62 1004.78 1004.99 1005.26 1005.62 1006.07 1006.62 1007.25 1007.95 1008.68 1009.40 1010.08 1010.68 1011.18 1011.55 1011.80 1011.93 1011.97 1011.93 1011.84 1011.72 1011.58 1011.42 1011.24 1011.04 1010.80 1010.51 1010.17 1009.77 1009.32 1008.81 1008.27
1007.65 1007.00 1006.34 1005.73 1005.18 1004.73 1004.37 1004.11 1003.94 1003.84 1003.82 1003.85 1003.96 1004.13 1004.39 1004.74 1005.20 1005.74 1006.37 1007.06 1007.77 1008.47 1009.12 1009.69 1010.16 1010.51 1010.75 1010.90 1010.96 1010.95 1010.91 1010.84 1010.76 1010.66 1010.55 1010.41 1010.22 1009.99 1009.70 1009.34 1008.92 1008.43 1007.90
1007.51 1006.88 1006.23 1005.60 1005.03 1004.53 1004.11 1003.77 1003.51 1003.33 1003.23 1003.19 1003.24 1003.37 1003.60 1003.93 1004.36 1004.89 1005.49 1006.14 1006.81 1007.46 1008.06 1008.59 1009.03 1009.37 1009.62 1009.79 1009.90 1009.96 1010.00 1010.01 1010.01 1010.00 1009.96 1009.88 1009.76 1009.58 1009.33 1009.01 1008.61 1008.15 1007.62
1007.40 1006.78 1006.14 1005.52 1004.93 1004.39 1003.92 1003.51 1003.18 1002.92 1002.74 1002.64 1002.63 1002.72 1002.91 1003.20 1003.59 1004.07 1004.61 1005.20 1005.80 1006.38 1006.92 1007.40 1007.81 1008.15 1008.43 1008.65 1008.83 1008.98 1009.12 1009.23 1009.34 1009.41 1009.45 1009.45 1009.39 1009.25 1009.04 1008.74 1008.37 1007.92 1007.41
1007.31 1006.71 1006.08 1005.46 1004.86 1004.28 1003.76 1003.29 1002.90 1002.57 1002.33 1002.18 1002.12 1002.16 1002.31 1002.56 1002.89 1003.30 1003.77 1004.27 1004.78 1005.28 1005.74 1006.17 1006.55 1006.90 1007.21 1007.50 1007.77 1008.03 1008.29 1008.52 1008.73 1008.91 1009.03 1009.09 1009.07 1008.97 1008.78 1008.51 1008.15 1007.72 1007.22
1007.23 1006.64 1006.02 1005.40 1004.77 1004.17 1003.60 1003.08 1002.63 1002.26 1001.97 1001.78 1001.69 1001.70 1001.81 1002.01 1002.28 1002.62 1003.00 1003.40 1003.81 1004.21 1004.60 1004.97 1005.33 1005.68 1006.04 1006.40 1006.78 1007.16 1007.53 1007.88 1008.20 1008.47 1008.66 1008.77 1008.79 1008.71 1008.53 1008.26 1007.92 1007.50 1007.02
Thickness
5681 5670 5662 5653 5645 5637 5630 5623 5614 5606 5595 5584 5575 5565 5559 5553 5545 5538 5530 5521 5512 5503 5493 5484 5474 5464 5454 5445 5435 5425 5415 5406 5397 5389 5384 5377 5363 5347 5330 5311 5295 5280 5267
5679 5671 5664 5657 5650 5642 5634 5626 5618 5608 5599 5590 5580 5569 5560 5552 5544 5536 5527 5518 5508 5498 5488 5478 5467 5457 5446 5435 5424 5413 5402 5392 5381 5369 5361 5357 5351 5337 5320 5300 5281 5266 5252
5686 5677 5668 5661 5654 5647 5640 5633 5622 5612 5601 5590 5576 5565 5555 5547 5539 5531 5524 5515 5505 5494 5484 5473 5461 5449 5438 5426 5415 5403 5390 5378 5365 5350 5335 5321 5318 5317 5313 5292 5273 5255 5239
5687 5682 5674 5665 5660 5656 5646 5635 5624 5613 5602 5589 5578 5568 5560 5552 5544 5534 5523 5512 5501 5490 5479 5467 5455 5443 5431 5418 5406 5394 5380 5366 5353 5337 5321 5305 5290 5277 5284 5283 5264 5245 5230
5689 5685 5681 5675 5667 5658 5646 5635 5624 5613 5602 5590 5581 5570 5563 5554 5540 5528 5517 5506 5496 5485 5473 5462 5449 5437 5424 5411 5397 5384 5370 5355 5341 5326 5310 5293 5277 5259 5247 5256 5258 5243 5225
5690 5685 5680 5672 5664 5654 5644 5633 5622 5613 5601 5590 5580 5571 5562 5549 5535 5523 5512 5501 5489 5479 5468 5456 5443 5431 5417 5404 5390 5376 5361 5346 5331 5316 5299 5283 5267 5254 5238 5232 5235 5233 5224
5686 5681 5675 5669 5663 5653 5644 5633 5621 5612 5601 5589 5579 5570 5561 5548 5536 5524 5511 5497 5485 5473 5463 5451 5438 5425 5411 5397 5383 5369 5354 5339 5323 5308 5292 5276 5261 5247 5232 5221 5220 5219 5219
5682 5677 5674 5667 5661 5652 5641 5630 5621 5612 5600 5589 5579 5568 5557 5545 5534 5522 5510 5497 5485 5473 5460 5446 5433 5419 5405 5391 5377 5362 5348 5333 5317 5302 5287 5271 5257 5241 5227 5214 5205 5207 5214
5676 5673 5669 5663 5656 5648 5640 5630 5620 5610 5599 5588 5577 5565 5554 5542 5532 5519 5506 5493 5481 5468 5454 5441 5427 5413 5399 5385 5371 5356 5342 5327 5312 5297 5282 5267 5254 5239 5225 5212 5199 5189 5195
5668 5667 5662 5657 5650 5643 5635 5624 5615 5607 5597 5584 5573 5563 5551 5539 5527 5514 5501 5489 5476 5463 5449 5435 5421 5407 5393 5379 5365 5351 5337 5321 5307 5293 5278 5264 5251 5238 5225 5213 5201 5190 5183
5661 5661 5658 5651 5643 5635 5626 5617 5609 5599 5589 5580 5569 5558 5548 5534 5522 5510 5499 5486 5472 5458 5444 5431 5416 5402 5388 5374 5360 5346 5332 5317 5304 5289 5276 5263 5249 5237 5226 5215 5204 5194 5185
5653 5652 5648 5642 5634 5625 5617 5609 5601 5593 5585 5574 5563 5553 5542 5529 5517 5507 5496 5482 5468 5454 5440 5426 5412 5398 5384 5370 5355 5342 5329 5314 5301 5287 5273 5261 5249 5238 5227 5217 5207 5198 5189
5645 5641 5637 5632 5626 5618 5609 5601 5594 5586 5577 5566 5556 5546 5535 5524 5515 5505 5491 5477 5463 5449 5435 5421 5407 5394 5380 5366 5352 5338 5325 5311 5298 5285 5272 5260 5248 5238 5228 5219 5210 5202 5195
5630 5628 5626 5624 5618 5610 5602 5594 5587 5579 5569 5559 5549 5541 5532 5522 5512 5499 5486 5473 5460 5446 5431 5418 5404 5390 5376 5362 5348 5335 5321 5308 5296 5284 5272 5260 5248 5239 5230 5222 5214 5206 5200
5620 5618 5615 5613 5609 5602 5595 5587 5580 5571 5561 5551 5543 5538 5528 5516 5504 5492 5480 5467 5454 5441 5427 5413 5399 5385 5371 5358 5343 5331 5319 5306 5295 5284 5272 5261 5250 5242 5233 5226 5219 5210 5204
5607 5607 5605 5602 5600 5595 5589 5582 5573 5564 5553 5545 5539 5530 5518 5508 5497 5486 5473 5460 5447 5434 5420 5407 5393 5380 5368 5356 5345 5334 5321 5308 5296 5285 5273 5262 5251 5243 5236 5229 5221 5213 5205
5595 5595 5594 5592 5590 5586 5579 5572 5566 5556 5545 5538 5531 5521 5511 5501 5491 5479 5467 5455 5442 5428 5415 5402 5388 5376 5364 5354 5344 5333 5322 5309 5297 5284 5272 5263 5253 5245 5235 5227 5222 5214 5206
5585 5584 5582 5581 5579 5575 5568 5561 5554 5545 5537 5529 5522 5514 5504 5495 5484 5472 5461 5449 5437 5424 5411 5398 5385 5372 5361 5351 5341 5330 5320 5307 5294 5282 5271 5261 5251 5242 5236 5231 5224 5215 5208
5573 5571 5569 5567 5564 5561 5555 5548 5542 5534 5526 5521 5515 5507 5498 5488 5478 5467 5457 5445 5431 5419 5406 5394 5381 5369 5358 5348 5338 5328 5315 5304 5292 5281 5271 5261 5252 5246 5241 5235 5226 5218 5211
5563 5560 5558 5554 5552 5549 5542 5535 5530 5524 5520 5517 5510 5501 5492 5483 5474 5464 5453 5440 5427 5415 5402 5389 5378 5366 5355 5344 5334 5325 5313 5302 5292 5281 5271 5262 5254 5248 5242 5234 5225 5218 5214
5550 5547 5544 5540 5539 5535 5528 5522 5520 5519 5517 5510 5502 5494 5485 5476 5468 5458 5446 5434 5422 5409 5396 5385 5374 5362 5352 5341 5332 5323 5311 5301 5291 5281 5271 5261 5254 5249 5242 5235 5225 5218 5217
5537 5534 5530 5529 5527 5521 5515 5512 5513 5513 5508 5502 5495 5488 5479 5470 5460 5449 5439 5427 5415 5403 5391 5379 5368 5358 5348 5339 5329 5320 5312 5302 5290 5281 5271 5261 5255 5249 5242 5233 5226 5222 5215
5523 5520 5516 5515 5515 5512 5505 5503 5507 5503 5499 5493 5487 5481 5473 5463 5454 5443 5432 5419 5408 5398 5387 5376 5366 5357 5346 5335 5328 5319 5310 5301 5290 5280 5271 5263 5256 5248 5238 5230 5226 5219 5209
5510 5507 5503 5503 5505 5503 5498 5495 5496 5493 5488 5484 5478 5472 5464 5455 5445 5437 5426 5415 5405 5395 5386 5375 5366 5356 5345 5334 5323 5314 5305 5297 5287 5277 5267 5261 5252 5243 5236 5229 5220 5213 5208
5497 5494 5491 5491 5493 5494 5492 5490 5487 5483 5478 5474 5469 5462 5455 5447 5437 5430 5422 5413 5406 5398 5388 5378 5367 5355 5343 5335 5325 5312 5302 5292 5282 5274 5263 5254 5245 5237 5231 5225 5219 5213 5208
5486 5484 5484 5484 5485 5485 5484 5482 5479 5473 5468 5465 5460 5453 5446 5437 5429 5420 5413 5408 5400 5393 5385 5375 5365 5355 5346 5335 5325 5315 5306 5296 5286 5274 5261 5251 5243 5235 5229 5223 5218 5213 5208